Location: Pasadena, ca
(34.1243°N, 118.1037°W)
Time: 00:17:44
(UTC-08:00)

N. Korean satellite - Pass Details

Date: 13 October 2017
Orbit: 461 x 513 km, 97.2° (Epoch: 16 December)

Event Time Altitude Azimuth Distance (km) Brightness Sun altitude
Rises 19:55:30 0° 206° (SSW) 2,557 10.5 -20.5°
Reaches altitude 10° 19:58:21 10° 231° (SW) 1,669 9.9 -21.1°
Maximum altitude 20:00:23 15° 265° (W) 1,405 9.9 -21.5°
Drops below altitude 10° 20:02:25 10° 300° (WNW) 1,658 10.2 -21.9°
Sets 20:05:14 0° 326° (NW) 2,530 10.8 -22.5°
